Location: Martz Observatory
(42.0083°N, 79.0667°W)
Time: 10:28:32
(UTC-04:00)

Meteor 1-23 Rocket - Visible Passes

Search period start: 26 May 2016 00:00
Search period end: 05 June 2016 00:00
Orbit: 840 x 885 km, 81.3° (Epoch: 26 May)

Date Brightness Start Highest point End Pass type
(mag) Time Alt. Az. Time Alt. Az. Time Alt. Az.
26 May 6.4 22:35:05 10° WSW 22:39:40 25° WNW 22:44:20 10° NNW visible
27 May 6.4 22:26:44 10° SW 22:31:19 25° WNW 22:36:01 10° NNW visible
28 May 6.5 22:18:21 10° SW 22:23:00 26° WNW 22:27:43 10° NNW visible
29 May 6.5 22:10:01 10° SW 22:14:40 26° WNW 22:19:25 10° NNW visible
30 May 6.5 22:01:38 10° SW 22:06:20 26° WNW 22:11:07 10° NNW visible
31 May 6.5 21:53:17 10° SW 21:58:00 26° WNW 22:02:48 10° NNW visible
01 Jun 6.6 21:44:56 10° SW 21:49:41 27° WNW 21:54:30 10° NNW visible
02 Jun 6.6 21:36:35 10° SW 21:41:20 27° WNW 21:46:11 10° NNW visible
03 Jun 6.6 21:28:14 10° SW 21:33:01 27° WNW 21:37:53 10° NNW visible
04 Jun 6.6 21:19:52 10° SW 21:24:41 28° WNW 21:29:35 10° NNW visible
